Date String (YYYY-MM-DD hh:mm:ss) UTC,Instrument flags,absolute air pressure of the measurement (hPa),sample flow rate (lpm),inlet stack bypass flow (lpm),air temperature of the measurement (°C),ambient temperature measured by the external sensor (°C),aerosol sample conditioner tube jacket temperature (°C),OPC LED temperature (°C),internal box temperature (°C),relative humidity of the measurement (%),span deviation,mass concentration of particles derived from Lorenz-Mie calculation of OPC scattering (μg/m³),mass concentration of particles derived from Lorenz-Mie calculation of OPC scattering (μg/m³),mass concentration of particles derived from Lorenz-Mie calculation of OPC scattering (μg/m³)
DateTimeUTC,F1_M11,P_M11,Q1_M11,Q2_M11,T1_M11,T2_M11,T3_M11,T4_M11,T5_M11,U1_M11,ZSPAN_M11,X0_M11,X2_M11,X1_M11
2023-06-01 02:00:00,SystemResetWarning,0824.9,5.00,000.00,029.7,027.4,000.0,038.1,031.2,23.2,0000.0,0011.25,0003.43,0002.32
2023-06-01 02:01:00,SystemResetWarning,0824.9,5.01,000.00,029.7,025.7,000.0,038.0,031.0,23.7,0000.0,0010.26,0003.41,0002.31
2023-06-01 02:02:00,SystemResetWarning,0824.9,5.01,000.00,029.6,025.2,000.0,037.9,030.9,23.5,0000.0,0010.20,0003.40,0002.31
2023-06-01 02:03:00,SystemResetWarning,0824.9,5.01,000.00,029.5,025.4,000.0,037.9,030.8,23.4,0000.0,0010.60,0003.40,0002.34
2023-06-01 02:04:00,SystemResetWarning,0824.9,4.99,000.00,029.4,025.7,000.0,037.8,030.8,23.5,0000.0,0010.21,0003.42,0002.36
2023-06-01 02:05:00,SystemResetWarning,0825.0,4.99,000.00,029.4,026.1,000.0,037.8,030.8,23.9,0000.0,0010.22,0003.45,0002.38
2023-06-01 02:06:00,SystemResetWarning,0825.0,5.01,000.00,029.4,026.4,000.0,037.8,030.8,24.3,0000.0,0010.29,0003.49,0002.41
2023-06-01 02:07:00,SystemResetWarning,0825.1,5.02,000.00,029.3,026.7,000.0,037.8,030.9,24.3,0000.0,0010.27,0003.46,0002.39
2023-06-01 02:08:00,SystemResetWarning,0825.1,4.98,000.00,029.3,027.0,000.0,037.8,030.9,24.3,0000.0,0009.88,0003.40,0002.36
2023-06-01 02:09:00,SystemResetWarning,0825.2,5.00,000.00,029.3,027.2,000.0,037.8,030.9,23.1,0000.0,0009.53,0003.38,0002.35
2023-06-01 02:10:00,SystemResetWarning,0825.3,5.01,000.00,029.3,027.3,000.0,037.8,030.9,21.7,0000.0,0009.30,0003.40,0002.37
2023-06-01 02:11:00,SystemResetWarning,0825.4,5.01,000.00,029.4,027.5,000.0,037.8,031.0,21.9,0000.0,0009.43,0003.42,0002.36
2023-06-01 02:12:00,SystemResetWarning,0825.5,5.00,000.00,029.4,027.6,000.0,037.8,031.0,22.9,0000.0,0009.70,0003.42,0002.33
2023-06-01 02:13:00,SystemResetWarning,0825.6,5.00,000.00,029.4,027.7,000.0,037.8,031.0,24.6,0000.0,0009.36,0003.39,0002.33
2023-06-01 02:14:00,SystemResetWarning,0825.7,4.99,000.00,029.4,027.7,000.0,037.8,031.0,25.2,0000.0,0008.42,0003.37,0002.33
2023-06-01 02:15:00,SystemResetWarning,0825.8,5.00,000.00,029.4,027.8,000.0,037.8,031.0,25.6,0000.0,0007.96,0003.36,0002.33
2023-06-01 02:16:00,SystemResetWarning,0825.8,4.99,000.00,029.4,027.7,000.0,037.8,031.0,25.6,0000.0,0007.86,0003.35,0002.32
2023-06-01 02:17:00,SystemResetWarning,0825.9,5.00,000.00,029.4,027.7,000.0,037.8,031.0,25.4,0000.0,0007.71,0003.29,0002.30
2023-06-01 02:18:00,SystemResetWarning,0825.9,5.00,000.00,029.4,027.7,000.0,037.8,031.0,25.5,0000.0,0007.59,0003.30,0002.31
2023-06-01 02:19:00,SystemResetWarning,0825.9,5.01,000.00,029.3,027.7,000.0,037.8,031.0,25.4,0000.0,0007.30,0003.28,0002.29
2023-06-01 02:20:00,SystemResetWarning,0825.9,5.00,000.00,029.3,027.7,000.0,037.8,030.9,25.5,0000.0,0007.27,0003.27,0002.27
2023-06-01 02:21:00,SystemResetWarning,0825.9,5.00,000.00,029.3,027.7,000.0,037.8,030.9,25.2,0000.0,0007.82,0003.26,0002.24
2023-06-01 02:22:00,SystemResetWarning,0826.0,4.99,000.00,029.3,027.7,000.0,037.7,030.9,25.3,0000.0,0007.83,0003.22,0002.21
2023-06-01 02:23:00,SystemResetWarning,0826.1,5.00,000.00,029.3,027.7,000.0,037.7,030.9,24.9,0000.0,0007.78,0003.20,0002.21
2023-06-01 02:24:00,SystemResetWarning,0826.1,5.01,000.00,029.3,027.7,000.0,037.7,030.9,25.0,0000.0,0007.95,0003.22,0002.19
2023-06-01 02:25:00,SystemResetWarning,0826.2,5.01,000.00,029.3,027.7,000.0,037.7,030.9,25.0,0000.0,0008.09,0003.25,0002.15
2023-06-01 02:26:00,SystemResetWarning,0826.2,4.99,000.00,029.3,027.7,000.0,037.7,030.9,25.0,0000.0,0008.09,0003.24,0002.11
2023-06-01 02:27:00,SystemResetWarning,0826.2,5.00,000.00,029.3,027.7,000.0,037.7,030.9,24.6,0000.0,0008.19,0003.23,0002.07
2023-06-01 02:28:00,SystemResetWarning,0826.2,5.00,000.00,029.3,027.7,000.0,037.7,030.9,24.4,0000.0,0008.29,0003.25,0002.03
2023-06-01 02:29:00,SystemResetWarning,0826.2,5.01,000.00,029.3,027.7,000.0,037.7,030.9,24.3,0000.0,0008.18,0003.24,0002.01
2023-06-01 02:30:00,SystemResetWarning,0826.2,5.00,000.00,029.3,027.8,000.0,037.7,031.0,24.5,0000.0,0008.11,0003.24,0002.01
2023-06-01 02:31:00,SystemResetWarning,0826.2,5.00,000.00,029.3,027.8,000.0,037.7,031.0,24.5,0000.0,0008.05,0003.23,0002.00
2023-06-01 02:32:00,SystemResetWarning,0826.2,4.99,000.00,029.3,027.9,000.0,037.8,031.0,24.4,0000.0,0007.50,0003.21,0002.00
2023-06-01 02:33:00,SystemResetWarning,0826.3,5.00,000.00,029.4,027.9,000.0,037.8,031.0,24.2,0000.0,0007.32,0003.21,0002.00
2023-06-01 02:34:00,SystemResetWarning,0826.4,5.00,000.00,029.4,027.9,000.0,037.8,031.0,24.0,0000.0,0008.00,0003.24,0001.99
2023-06-01 02:35:00,SystemResetWarning,0826.3,5.00,000.00,029.4,027.9,000.0,037.8,031.0,24.0,0000.0,0008.30,0003.22,0001.97
2023-06-01 02:36:00,SystemResetWarning,0826.5,5.01,000.00,029.4,027.9,000.0,037.8,031.0,24.1,0000.0,0008.33,0003.26,0002.00
2023-06-01 02:37:00,SystemResetWarning,0826.6,5.01,000.00,029.4,027.9,000.0,037.8,031.0,24.3,0000.0,0008.62,0003.33,0002.01
2023-06-01 02:38:00,SystemResetWarning,0826.7,4.98,000.00,029.4,027.9,000.0,037.8,031.0,24.1,0000.0,0008.62,0003.35,0002.03
2023-06-01 02:39:00,SystemResetWarning,0826.8,5.00,000.00,029.4,027.9,000.0,037.8,031.0,24.8,0000.0,0008.58,0003.34,0002.05
2023-06-01 02:40:00,SystemResetWarning,0826.8,5.01,000.00,029.4,027.9,000.0,037.8,031.0,25.0,0000.0,0009.22,0003.34,0002.05
2023-06-01 02:41:00,SystemResetWarning,0826.7,5.00,000.00,029.3,027.8,000.0,037.8,030.9,24.7,0000.0,0009.27,0003.33,0002.05
2023-06-01 02:42:00,SystemResetWarning,0826.8,4.98,000.00,029.3,027.8,000.0,037.8,030.9,24.9,0000.0,0009.45,0003.32,0002.07
2023-06-01 02:43:00,SystemResetWarning,0826.8,5.00,000.00,029.3,027.8,000.0,037.8,030.9,25.3,0000.0,0009.75,0003.39,0002.08
2023-06-01 02:44:00,SystemResetWarning,0826.8,5.02,000.00,029.3,027.7,000.0,037.8,030.9,25.5,0000.0,0009.90,0003.43,0002.09
2023-06-01 02:45:00,SystemResetWarning,0826.8,5.00,000.00,029.3,027.7,000.0,037.8,030.9,25.3,0000.0,0009.52,0003.45,0002.11
2023-06-01 02:46:00,SystemResetWarning,0826.8,5.00,000.00,029.3,027.7,000.0,037.7,030.8,24.6,0000.0,0008.74,0003.47,0002.12
2023-06-01 02:47:00,SystemResetWarning,0826.8,4.99,000.00,029.2,027.6,000.0,037.7,030.8,24.5,0000.0,0008.68,0003.45,0002.12
2023-06-01 02:48:00,SystemResetWarning,0826.8,4.99,000.00,029.2,027.6,000.0,037.7,030.8,24.0,0000.0,0008.54,0003.41,0002.15
2023-06-01 02:49:00,SystemResetWarning,0826.8,5.00,000.00,029.2,027.6,000.0,037.7,030.8,23.8,0000.0,0008.41,0003.38,0002.14
2023-06-01 02:50:00,SystemResetWarning,0826.8,5.01,000.00,029.2,027.6,000.0,037.7,030.8,23.6,0000.0,0008.52,0003.40,0002.13
2023-06-01 02:51:00,SystemResetWarning,0826.8,5.00,000.00,029.2,027.6,000.0,037.7,030.8,23.9,0000.0,0008.13,0003.40,0002.12
2023-06-01 02:52:00,SystemResetWarning,0826.9,5.00,000.00,029.2,027.6,000.0,037.7,030.8,24.0,0000.0,0008.03,0003.47,0002.14
2023-06-01 02:53:00,SystemResetWarning,0826.9,5.00,000.00,029.2,027.6,000.0,037.7,030.8,23.9,0000.0,0007.97,0003.50,0002.14
2023-06-01 02:54:00,SystemResetWarning,0826.9,5.00,000.00,029.2,027.6,000.0,037.7,030.8,23.6,0000.0,0007.79,0003.50,0002.14
2023-06-01 02:55:00,SystemResetWarning,0827.0,4.99,000.00,029.2,027.6,000.0,037.7,030.8,23.7,0000.0,0007.59,0003.46,0002.13
2023-06-01 02:56:00,SystemResetWarning,0826.9,4.99,000.00,029.2,027.6,000.0,037.7,030.8,23.8,0000.0,0007.69,0003.44,0002.13
2023-06-01 02:57:00,SystemResetWarning,0827.0,5.00,000.00,029.2,027.6,000.0,037.7,030.8,23.8,0000.0,0007.65,0003.42,0002.14
2023-06-01 02:58:00,SystemResetWarning,0826.9,5.00,000.00,029.2,027.6,000.0,037.7,030.7,23.8,0000.0,0008.16,0003.45,0002.16
2023-06-01 02:59:00,SystemResetWarning,0827.0,5.01,000.00,029.2,027.6,000.0,037.7,030.7,23.7,0000.0,0008.20,0003.44,0002.15
